• Processing (Info)

  • MPEC 2001-S46 : 2001 SK169

    The following Minor Planet Electronic Circular may be linked-to from your own Web pages, but must not otherwise be redistributed electronically.

    A form allowing access to any MPEC is at the bottom of this page.


    Read MPEC 2001-S45 Read MPEC 2001-S47


    M.P.E.C. 2001-S46                                Issued 2001 Sept. 26, 20:05 UT
    
         The Minor Planet Electronic Circulars contain information on unusual
             minor planets and routine data on comets.  They are published
       on behalf of Commission 20 of the International Astronomical Union by the
              Minor Planet Center, Smithsonian Astrophysical Observatory,
                              Cambridge, MA 02138, U.S.A.
    
                 Prepared using the Tamkin Foundation Computer Network
    
                                  MPC@CFA.HARVARD.EDU
              URL http://cfa-www.harvard.edu/iau/mpc.html  ISSN 1523-6714
    
                                      2001 SK169
    
    Observations:
         K01SG9K  C2001 09 12.32848 23 46 30.55 +01 53 33.8          19.3        704
         K01SG9K  C2001 09 12.34261 23 46 29.88 +01 53 16.6          20.1        704
         K01SG9K  C2001 09 12.35676 23 46 29.29 +01 53 00.7          19.9        704
         K01SG9K  C2001 09 12.37088 23 46 28.57 +01 52 42.7          20.4        704
         K01SG9K  C2001 09 12.38500 23 46 27.98 +01 52 26.9          20.1        704
         K01SG9K* C2001 09 20.25165 23 40 33.16 -00 51 01.3          18.4        704
         K01SG9K  C2001 09 20.26581 23 40 32.47 -00 51 19.9          19.3        704
         K01SG9K  C2001 09 20.27996 23 40 31.74 -00 51 38.7          19.2        704
         K01SG9K  C2001 09 20.29410 23 40 30.97 -00 51 57.6          19.6        704
         K01SG9K  C2001 09 20.30824 23 40 30.24 -00 52 16.4          19.5        704
         K01SG9K  C2001 09 21.26765 23 39 44.28 -01 13 37.7          19.1        704
         K01SG9K  C2001 09 21.28179 23 39 43.52 -01 13 57.1          19.3        704
         K01SG9K  C2001 09 21.29594 23 39 42.82 -01 14 16.0          19.1        704
         K01SG9K  C2001 09 21.31009 23 39 42.05 -01 14 35.4          19.4        704
         K01SG9K  C2001 09 24.24848 23 37 19.18 -02 21 30.2          19.1        704
         K01SG9K  C2001 09 24.26332 23 37 18.42 -02 21 51.1          19.7        704
         K01SG9K  C2001 09 24.27814 23 37 17.63 -02 22 12.2          19.4        704
         K01SG9K  C2001 09 24.29296 23 37 16.85 -02 22 32.3          19.7        704
         K01SG9K  C2001 09 24.30792 23 37 16.04 -02 22 53.3          20.0        704
         K01SG9K  C2001 09 25.25408 23 36 29.89 -02 44 50.1          19.3        704
         K01SG9K  C2001 09 25.25494 23 36 29.85 -02 44 52.5          19.5        704
         K01SG9K  C2001 09 25.26907 23 36 29.11 -02 45 11.5          19.6        704
         K01SG9K  C2001 09 25.28409 23 36 28.33 -02 45 32.9          19.6        704
         K01SG9K  C2001 09 25.28564 23 36 28.23 -02 45 34.7          19.5        704
         K01SG9K  C2001 09 25.29910 23 36 27.57 -02 45 53.7          19.7        704
         K01SG9K  C2001 09 25.30298 23 36 27.33 -02 45 58.8          19.3        704
         K01SG9K  C2001 09 25.31409 23 36 26.74 -02 46 14.8          19.4        704
         K01SG9K  C2001 09 25.31974 23 36 26.39 -02 46 23.6          19.5        704
    
    Observer details:
    704 Lincoln Laboratory ETS, New Mexico.  Observers M. Blythe, F. Shelly,
        M. Bezpalko, R. Huber, L. Manguso, S. Adams.  Measurers J. Stuart,
        R. Sayer, J. B. Evans, H. Viggh.  1.0-m f/2.15 reflector + CCD.
    
    Orbital elements:
    2001 SK169
    Epoch 2001 Sept. 8.0 TT = JDT 2452160.5                 Spahr
    M 330.40151              (2000.0)            P               Q
    n   0.19742254     Peri.  263.74217     +0.14385309     -0.98951961
    a   2.9210449      Node   177.86203     +0.98752788     +0.14272115
    e   0.5563002      Incl.   19.63988     +0.06399200     +0.02194550
    P   4.99           H   17.1           G   0.15
    From 28 observations 2001 Sept. 12-25.
    
    Ephemeris:
    2001 SK169               a,e,i = 2.92, 0.56, 20                  q = 1.2961
    Date    TT    R. A. (2000) Decl.     Delta      r     Elong.  Phase     V
    2001 09 18    23 42.32   -00 01.9    0.941    1.946   178.1     1.0    18.6
    2001 09 28    23 34.26   -03 49.3    0.888    1.879   167.6     6.6    18.7
    2001 10 08    23 26.64   -07 48.0    0.860    1.812   154.2    13.9    18.9
    2001 10 18    23 21.05   -11 33.4    0.854    1.747   141.3    20.9    19.0
    2001 10 28    23 18.90   -14 44.9    0.867    1.683   129.5    27.1    19.1
    2001 11 07    23 21.00   -17 11.8    0.891    1.621   118.9    32.4    19.3
    2001 11 17    23 27.59   -18 51.4    0.922    1.562   109.7    36.6    19.4
    2001 11 27    23 38.59   -19 45.3    0.955    1.507   101.8    39.9    19.5
    2001 12 07    23 53.59   -19 57.8    0.987    1.456    95.2    42.4    19.5
    2001 12 17    00 12.13   -19 32.2    1.016    1.410    89.6    44.3    19.6
    2001 12 27    00 33.81   -18 32.0    1.042    1.371    85.1    45.6    19.6
    2002 01 06    00 58.18   -17 00.1    1.064    1.339    81.6    46.6    19.6
    
    Timothy B. Spahr             (C) Copyright 2001 MPC           M.P.E.C. 2001-S46
    

    Read MPEC 2001-S45 Read MPEC 2001-S47


    MPEC number:

    Enter an MPEC number in one of the following forms:

    • 1997-B01 (the full form)
    • J97B01 (the packed version of the full form)
    • B01 (the abbreviated form)